Regional Weather Roundup
Issued by NWS

Home | Current Version | Previous Version | Text Only | Print | Product List | Glossary Off
Versions: 1 2 3 4 5 6 7 8 9 10 11 12 13 14 15 16 17 18 19 20 21 22 23 24 25 26 27 28 29 30 31 32 33 34 35 36 37 38 39 40 41 42 43 44 45 46 47 48 49 50

000
ASUS43 KMKX 041300
RWRWI

WISCONSIN REGIONAL WEATHER ROUNDUP
NATIONAL WEATHER SERVICE MILWAUKEE/SULLIVAN WI
800 AM CDT WED MAY 04 2016

NOTE: "FAIR" INDICATES FEW OR NO CLOUDS BELOW 12,000 FEET WITH NO
SIGNIFICANT WEATHER AND/OR OBSTRUCTIONS TO VISIBILITY.

WIZ001-002-006>008-014>016-023>028-041400-
NORTHWEST WISCONSIN

CITY           SKY/WX    TMP DP  RH WIND       PRES   REMARKS
SUPERIOR ARPT  SUNNY     47  35  61 N7        29.97R
ASHLAND        SUNNY     47  34  60 N15       29.93R
HAYWARD        SUNNY     45  32  60 VRB7G17   29.93R
SIREN          SUNNY     46  33  60 N8        29.96R
CUMBERLAND     SUNNY     43  32  65 N9        29.93S
RICE LAKE      SUNNY     46  33  61 NW9       29.94R
CHETEK         SUNNY     45  35  67 N8        29.92R
LADYSMITH      SUNNY     44  35  70 N8        29.91R
EAU CLAIRE     NOT AVBL
MENOMONIE      SUNNY     47  33  57 NW12G17   29.93R
NEW RICHMOND   SUNNY     47  33  57 N10       29.96R
OSCEOLA        SUNNY     46  34  64 N5        29.99R
$$

WIZ003>005-009-010-017-018-041400-
NORTH CENTRAL WISCONSIN

CITY           SKY/WX    TMP DP  RH WIND       PRES   REMARKS
MANITOWISH WTR MOSUNNY   40  34  77 N9        29.85R WCI  34
ARBOR VITAE    MOSUNNY   42  36  79 N13       29.84R
WOODRUFF       MOSUNNY   42  36  79 N13       29.84R
RHINELANDER    SUNNY     40  31  70 N17G25    29.84R WCI  31
EAGLE RIVER    CLOUDY    38  31  74 N16G23    29.83R WCI  29
LAND O LAKES   CLOUDY    38  33  82 N14G20    29.84R WCI  30
PHILLIPS       SUNNY     41  34  75 N8        29.86R
TOMAHAWK       SUNNY     41  33  75 N10G20    29.84R
MEDFORD        SUNNY     41  36  82 N9        29.85R
MERRILL        MOSUNNY   43  37  81 N7G18     29.83R
$$

WIZ029-030-035-036-043>047-041400-
CENTRAL WISCONSIN

CITY           SKY/WX    TMP DP  RH WIND       PRES   REMARKS
WAUSAU         SUNNY     46  37  71 N10       29.81R
MOSINEE        SUNNY     43  39  87 NW12      29.84R
MARSHFIELD     SUNNY     45  37  73 N14       29.84R
STEVENS POINT  SUNNY     41  36  80 N9        29.83R
WAUPACA        SUNNY     45  38  74 NW12      29.81R
WAUTOMA        MOSUNNY   45  37  73 NW16G22   29.82R
WISC RAPIDS    SUNNY     46  36  68 N14       29.85R
CAMP DOUGLAS   NOT AVBL
$$

WIZ011>013-019>022-031-037>040-048>050-041400-
NORTHEAST WISCONSIN

CITY           SKY/WX    TMP DP  RH WIND       PRES   REMARKS
ANTIGO         MOSUNNY   39  32  78 N20G30    29.81R WCI  29
SHAWANO        CLOUDY    45  37  75 N12       29.79R
OCONTO         CLOUDY    43  37  77 N13G21    29.77R
STURGEON BAY   CLOUDY    43  34  70 N25G32    29.78R
GREEN BAY      CLOUDY    44  37  76 N12       29.77R
MANITOWOC      PTSUNNY   45  36  70 N16G29    29.75R
APPLETON       PTSUNNY   43  36  75 NW10G18   29.77R
CLINTONVILLE   MOSUNNY   43  36  75 N7        29.80R
OSHKOSH        CLOUDY    44  37  76 N15       29.78R
$$

WIZ032>034-041-042-053>061-041400-
SOUTHWEST WISCONSIN

CITY           SKY/WX    TMP DP  RH WIND       PRES   REMARKS
LA CROSSE      SUNNY     49  38  65 N10       29.90R
SPARTA         SUNNY     46  39  77 NW8       29.89R
VIROQUA        SUNNY     44  39  83 N10       29.87R
BOSCOBEL       SUNNY     50  39  66 N8        29.87R
PRAIRIE DU CHI SUNNY     48  37  65 N13       29.88R
PLATTEVILLE    MOSUNNY  N/A N/A N/A N20       29.83R
$$

WIZ056-057-062-063-064-067-068-041400-
SOUTH CENTRAL WISCONSIN

CITY           SKY/WX    TMP DP  RH WIND       PRES   REMARKS
REEDSBURG      MOSUNNY   45  38  78 N13G20    29.84R
BARABOO/DELLS  MOSUNNY   44  37  77 N12G18    29.82R
LONE ROCK      NOT AVBL
MINERAL POINT  SUNNY     46  41  81 N13       29.83R
MADISON        MOSUNNY   45  38  76 N14G21    29.80R
MIDDLETON      MOSUNNY   46  38  73 N14G22    29.81R
WATERTOWN      PTSUNNY   43  39  87 N14G21    29.78R
MONROE         PTSUNNY   45  39  81 N13G24    29.79R
JANESVILLE     CLOUDY    46  39  76 N15G23    29.78R
$$

WIZ051-052-058>065-066-070>072-041400-
SOUTHEAST WISCONSIN

CITY           SKY/WX    TMP DP  RH WIND       PRES   REMARKS
MILWAUKEE      PTSUNNY   45  37  73 N15       29.74R
WAUKESHA       PTSUNNY   41  36  81 NW12G25   29.76R
MILWAUKEE/TIMM CLOUDY    43  34  70 N16G24    29.76R
RACINE         CLOUDY    46  38  73 N22G29    29.75R
BURLINGTON     MOSUNNY   44  38  79 N10G18    29.74R
KENOSHA        PTSUNNY   46  38  73 N13G23    29.73R
FOND DU LAC    CLOUDY    45  37  73 N17       29.78R
SHEBOYGAN      PTSUNNY   44  36  73 N20G29    29.74S
WEST BEND      CLOUDY    41  34  75 N14G22    29.76R
JUNEAU         CLOUDY    42  37  81 N18       29.79R
$$

LSZ147-162-041400-
LAKE SUPERIOR

STATION/POSITION TIME  TEMP    WIND        PRES    WAVE
                       AIR SEA DIR/SP/G            HT/PER
                 (UTC) (F)     (DEG/KT/KT) (MB)    (FT/S)
W MID LAKE BUOY  1150   40 37   10/ 10/ 12 1012.8R   1/ 3
DEVILS ISLAND    1200   42     360/ 14/ 15 1013.7R
SAXON HARBOR     1200   42     330/  9/ 10 1012.2R
$$

LMZ867-665-643>646-041400-
LAKE MICHIGAN

STATION/POSITION TIME  TEMP    WIND        PRES    WAVE
                       AIR SEA DIR/SP/G            HT/PER
                 (UTC) (F)     (DEG/KT/KT) (MB)    (FT/S)
CHAMBERS ISLAND  1200   41     340/ 25/ 29 1007.8R
N MID LAKE BUOY  1150   39 38  320/ 19/ 23 1005.8R   4/ 5
NORTHPORT PIER   1200   40     340/ 23     1007.1R
ALGOMA LAKESHORE 1215          340/ 15/ 21   N/A
KEWAUNEE LAKESHO 1200   43     350/ 12/ 18 1006.4R
SHEBOYGAN LAKESH 1200   44     340/ 23/ 28 1007.2R
PORT WASHINGTON  1240   46     340/ 13/ 19 1008.1R
S MID LAKE BUOY  1150   42 40  360/ 25/ 31 1004.1R   4/ 4
KENOSHA   LAKESH 1200   46     360/ 21/ 27 1006.1R
$$

TC  - TEMPERATURE IN CELSIUS
VSB - VISIBILITY IN STATUTE MILES
WCI - WIND CHILL INDEX
HX  - HEAT INDEX





USA.gov is the U.S. government's official web portal to all federal, state and local government web resources and services.